TimeCST,TemperatureF,Dew PointF,Humidity,Sea Level PressureIn,VisibilityMPH,Wind Direction,Wind SpeedMPH,Gust SpeedMPH,PrecipitationIn,Events,Conditions,WindDirDegrees,DateUTC
12:52 AM,23.0,19.9,88,30.30,10.0,ESE,12.7,-,N/A,,Clear,120,2013-03-07 06:52:00
1:52 AM,21.9,19.0,89,30.32,10.0,ESE,9.2,-,N/A,,Clear,120,2013-03-07 07:52:00
2:52 AM,21.9,19.0,89,30.29,10.0,ESE,12.7,-,N/A,,Clear,110,2013-03-07 08:52:00
3:52 AM,21.9,18.0,85,30.27,10.0,ESE,11.5,-,N/A,,Clear,120,2013-03-07 09:52:00
4:52 AM,21.0,18.0,88,30.27,10.0,ESE,11.5,-,N/A,,Clear,120,2013-03-07 10:52:00
5:52 AM,21.0,18.0,88,30.28,10.0,ESE,12.7,-,N/A,,Clear,120,2013-03-07 11:52:00
6:52 AM,19.9,17.1,89,30.29,8.0,ESE,12.7,-,N/A,,Clear,120,2013-03-07 12:52:00
7:52 AM,21.9,18.0,85,30.29,9.0,ESE,15.0,-,N/A,,Clear,120,2013-03-07 13:52:00
8:52 AM,24.8,19.4,80,30.22,10.0,SE,18.4,-,N/A,,Clear,140,2013-03-07 14:52:00
9:52 AM,28.9,21.0,72,30.26,10.0,SSE,18.4,25.3,N/A,,Clear,150,2013-03-07 15:52:00
10:52 AM,33.1,24.1,70,30.24,10.0,SSE,16.1,25.3,N/A,,Clear,160,2013-03-07 16:52:00
11:52 AM,37.0,25.0,62,30.21,10.0,SSE,13.8,26.5,N/A,,Clear,150,2013-03-07 17:52:00
12:52 PM,41.0,28.0,60,30.19,10.0,SSE,17.3,21.9,N/A,,Clear,150,2013-03-07 18:52:00
1:52 PM,43.0,28.0,56,30.16,10.0,SSE,15.0,-,N/A,,Clear,150,2013-03-07 19:52:00
2:52 PM,45.0,28.9,53,30.13,10.0,SSE,18.4,25.3,N/A,,Clear,160,2013-03-07 20:52:00
3:52 PM,46.0,28.9,51,30.14,10.0,SSE,13.8,-,N/A,,Clear,160,2013-03-07 21:52:00
4:52 PM,45.0,28.9,53,30.15,10.0,SSE,9.2,-,N/A,,Clear,150,2013-03-07 22:52:00
5:52 PM,41.0,30.0,65,30.15,10.0,ESE,11.5,-,N/A,,Clear,120,2013-03-07 23:52:00
6:52 PM,37.0,28.9,73,30.16,10.0,ESE,10.4,-,N/A,,Clear,110,2013-03-08 00:52:00
7:52 PM,35.1,28.0,76,30.18,10.0,ESE,12.7,-,N/A,,Clear,120,2013-03-08 01:52:00
8:52 PM,34.0,28.0,79,30.19,10.0,SE,13.8,-,N/A,,Clear,130,2013-03-08 02:52:00
9:52 PM,34.0,27.0,75,30.19,10.0,SE,15.0,-,N/A,,Clear,140,2013-03-08 03:52:00
10:52 PM,32.0,26.1,79,30.22,10.0,SE,13.8,-,N/A,,Clear,130,2013-03-08 04:52:00
11:52 PM,30.2,26.6,86,30.19,10.0,SE,9.2,-,N/A,,Clear,130,2013-03-08 05:52:00